[[{"header":{"parameterUnit":"m.s-1","parameterCategory":1,"la1":30.2991,"la2":30.254,"lo1":-89.0895,"lo2":-89.0444,"dy":0.0017,"dx":0.0017,"nx":28,"ny":28,"refTime":"2025-12-21T03:00:00:Z","depth":0,"parameterNumber":2,"parameterNumberName":"U-component_of_WINDS"},"data":[0,0,0,0,0,0,0,0,0,0,0,0,0,0,0,0,0,0,0,0,0,0,0,0,0,0,0,0,0,0,0,0,0,0,0,0,0,0,0,0,0,0,0,0,0,0,0,0,0,0,0,0,0,0,0,0,0,0,-1.3864,-1.3865,0,-1.3908,-1.3909,-1.3909,-1.3885,-1.3884,-1.3883,-1.3882,-1.3926,-1.3929,-1.3931,0,0,0,0,0,0,0,0,0,0,0,0,0,-1.376,-1.3762,-1.3864,-1.3865,-1.3865,-1.3908,-1.3909,-1.3909,-1.3885,-1.3884,-1.3883,-1.3881,-1.3926,-1.3928,-1.3931,0,0,0,0,0,0,0,0,0,0,0,0,0,-1.3805,-1.3763,-1.3864,-1.3859,-1.3859,-1.3908,-1.3909,-1.3909,-1.3886,-1.3884,-1.3882,-1.3881,-1.3925,-1.3928,-1.3931,-1.3989,0,0,-1.3942,-1.3943,0,0,0,0,0,0,0,0,-1.3802,-1.3809,-1.3859,-1.3859,-1.3859,-1.3889,-1.3888,-1.3936,-1.3886,-1.3875,-1.3882,-1.388,-1.3915,-1.392,-1.3932,-1.3991,-1.3993,-1.3942,-1.3944,-1.3946,-1.3947,0,0,0,0,0,0,0,-1.3799,-1.3807,-1.3882,-1.386,-1.386,-1.3854,-1.3858,-1.3897,-1.3905,-1.3876,-1.3875,-1.388,-1.3915,-1.3928,-1.3933,-1.3993,-1.3942,-1.3945,-1.3947,-1.3949,-1.4101,-1.4103,0,0,0,0,0,0,-1.3797,-1.3804,-1.388,-1.3883,-1.3826,-1.3857,-1.3862,-1.3882,-1.3904,-1.3906,-1.3882,-1.3879,-1.3923,-1.3929,-1.3934,-1.4002,-1.3946,-1.3949,-1.3951,-1.4099,-1.4102,-1.4104,0,0,0,0,0,0,-1.3795,-1.3804,-1.3878,-1.3843,-1.3852,-1.3861,-1.3883,-1.3883,-1.3896,-1.3909,-1.391,-1.3894,-1.3922,-1.3929,-1.3975,-1.4003,-1.3951,-1.3954,-1.4097,-1.41,-1.4103,-1.4138,0,0,0,0,0,0,-1.3792,-1.3803,-1.3825,-1.3844,-1.3854,-1.3919,-1.3885,-1.3885,-1.3903,-1.3899,-1.392,-1.3922,-1.3921,-1.397,-1.3979,-1.4007,-1.3956,-1.4094,-1.4098,-1.4102,-1.4134,-1.4141,-1.4148,0,0,0,0,0,-1.3788,-1.3833,-1.3826,-1.3835,-1.3881,-1.392,-1.3926,-1.3925,-1.3905,-1.3927,-1.3935,-1.3921,-1.3999,-1.3975,-1.3984,-1.4014,-1.4093,-1.4097,-1.4102,-1.4131,-1.414,-1.4148,0,0,0,0,0,0,-1.3816,-1.3835,-1.3828,-1.388,-1.3899,-1.3916,-1.3943,-1.3935,-1.3959,-1.3955,-1.3952,-1.3957,-1.4005,-1.4014,-1.3987,-1.407,-1.4043,-1.4049,-1.4062,-1.4071,-1.4077,-1.4073,-1.3959,0,0,0,0,0,-1.3828,-1.3858,-1.3873,-1.3918,-1.3928,-1.3934,-1.3951,-1.3949,-1.3968,-1.3976,-1.3987,-1.4006,-1.4035,-1.4054,-1.4081,-1.4136,-1.414,-1.4161,-1.4168,-1.4174,-1.4179,-1.4208,-1.4217,-1.4119,-1.4118,-1.4118,0,0,-1.3853,-1.3868,-1.3887,-1.3924,-1.3938,-1.3969,-1.3941,-1.3975,-1.3998,-1.3981,-1.4024,-1.4034,-1.4055,-1.4106,-1.4129,-1.4115,-1.4207,-1.418,-1.4184,-1.4186,-1.4214,-1.4223,-1.4231,-1.4122,-1.4121,-1.4121,0,0,-1.3915,-1.393,-1.3968,-1.3983,-1.4005,-1.4009,-1.4019,-1.4038,-1.4044,-1.4088,-1.4076,-1.4103,-1.4153,-1.4169,-1.4183,-1.4253,-1.4241,-1.4262,-1.4297,-1.4325,-1.4333,-1.434,-1.4363,-1.4372,-1.4267,-1.4267,-1.4267,0,-1.3943,-1.3989,-1.3989,-1.4023,-1.404,-1.4027,-1.4066,-1.4081,-1.4111,-1.4122,-1.4107,-1.417,-1.4183,-1.4237,-1.4254,-1.4267,-1.4277,-1.4258,-1.4332,-1.4339,-1.4345,-1.4368,-1.4377,-1.427,-1.4269,-1.4269,-1.4269,0,-1.4023,-1.4055,-1.4083,-1.4113,-1.4133,-1.417,-1.4174,-1.4195,-1.4192,-1.4198,-1.4243,-1.4259,-1.4289,-1.4302,-1.4299,-1.4356,-1.4347,-1.4332,-1.4304,-1.4357,-1.4378,-1.4386,-1.4273,-1.4272,-1.4271,-1.4271,0,0,-1.41,-1.413,-1.414,-1.4153,-1.4178,-1.4202,-1.4239,-1.4269,-1.4286,-1.4308,-1.4338,-1.4381,-1.4368,-1.4385,-1.4384,-1.4409,-1.4462,-1.4391,-1.4392,-1.4402,-1.4524,-1.4533,-1.4543,-1.4456,-1.4457,-1.4459,-1.4522,0,-1.4161,-1.4225,-1.4226,-1.4284,-1.4313,-1.4303,-1.4335,-1.4353,-1.4361,-1.4387,-1.4395,-1.4425,-1.4406,-1.4416,-1.4441,-1.445,-1.4486,-1.4446,-1.4482,-1.4483,-1.4474,-1.4554,-1.4564,-1.4622,-1.453,-1.4531,-1.4532,0,-1.4241,-1.4265,-1.4326,-1.4347,-1.4359,-1.4388,-1.4415,-1.4441,-1.4462,-1.4466,-1.4485,-1.448,-1.4518,-1.4491,-1.4542,-1.4515,-1.453,-1.4537,-1.4539,-1.4541,-1.4509,-1.4555,-1.4641,-1.4649,-1.4545,-1.4544,-1.4543,0,-1.4289,-1.4337,-1.438,-1.4392,-1.4417,-1.4438,-1.4449,-1.4469,-1.4487,-1.4512,-1.4523,-1.4552,-1.4567,-1.459,-1.4593,-1.4573,-1.4644,-1.4617,-1.4647,-1.4647,-1.466,-1.4658,-1.4747,-1.4674,-1.4674,-1.4674,-1.4674,0,-1.4356,-1.4393,-1.4402,-1.4428,-1.4469,-1.4471,-1.4512,-1.4523,-1.4541,-1.4568,-1.4562,-1.4588,-1.4592,-1.462,-1.4623,-1.4664,-1.4672,-1.4675,-1.4675,-1.4674,-1.4673,-1.4682,-1.4677,-1.4676,-1.4676,-1.4675,-1.4675,0,-1.4415,-1.4422,-1.4468,-1.4489,-1.4495,-1.4525,-1.4543,-1.4568,-1.4575,-1.4611,-1.4619,-1.4631,-1.4663,-1.4669,-1.4707,-1.4709,-1.4758,-1.4755,-1.475,-1.4749,-1.4778,-1.4774,-1.4873,-1.4885,-1.4806,-1.4807,-1.4808,0,-1.4455,-1.4484,-1.4508,-1.4527,-1.4539,-1.4569,-1.4587,-1.4591,-1.4611,-1.4638,-1.4659,-1.4691,-1.4716,-1.4768,-1.4779,-1.4808,-1.4805,-1.4838,-1.4809,-1.4807,-1.4803,-1.48,-1.4802,-1.4842,-1.4843,-1.4843,-1.4844,0,-1.4527,-1.4529,-1.4556,-1.4585,-1.4607,-1.463,-1.4651,-1.4667,-1.4674,-1.4696,-1.4729,-1.4748,-1.4787,-1.4818,-1.4848,-1.486,-1.4853,-1.4854,-1.4862,-1.486,-1.4855,-1.4856,-1.4762,-1.485,-1.485,-1.4849,-1.4849,-1.4849,-1.4576,-1.4601,-1.4622,-1.4652,-1.4669,-1.469,-1.4714,-1.4725,-1.4753,-1.4784,-1.4786,-1.4821,-1.4843,-1.4881,-1.4896,-1.4923,-1.4913,-1.4925,-1.4928,-1.493,-1.4932,-1.4853,-1.4929,-1.4929,-1.4929,-1.4929,-1.4929,0,-1.4645,-1.4659,-1.4687,-1.4717,-1.4741,-1.4734,-1.4758,-1.4778,-1.481,-1.4831,-1.4856,-1.4894,-1.4924,-1.4939,-1.4969,-1.4989,-1.4986,-1.4996,-1.4993,-1.4996,-1.494,-1.4929,-1.4998,-1.4998,-1.4998,-1.4997,-1.4997,-1.4997,-1.4684,-1.4725,-1.473,-1.478,-1.4793,-1.4828,-1.4842,-1.4861,-1.4878,-1.492,-1.4945,-1.4955,-1.4974,-1.5006,-1.5033,-1.5037,-1.5047,-1.5058,-1.506,-1.5007,-1.5,-1.4993,-1.4983,-1.5061,-1.5061,-1.5114,-1.5114,-1.5115]},{"header":{"parameterUnit":"m.s-1","parameterCategory":1,"la1":30.2991,"la2":30.254,"lo1":-89.0895,"lo2":-89.0444,"dy":0.0017,"dx":0.0017,"nx":28,"ny":28,"refTime":"2025-12-21T03:00:00:Z","depth":0,"parameterNumber":3,"parameterNumberName":"V-component_of_WINDS"},"data":[0,0,0,0,0,0,0,0,0,0,0,0,0,0,0,0,0,0,0,0,0,0,0,0,0,0,0,0,0,0,0,0,0,0,0,0,0,0,0,0,0,0,0,0,0,0,0,0,0,0,0,0,0,0,0,0,0,0,2.1532,2.1533,0,2.1659,2.1661,2.1662,2.1705,2.1704,2.1704,2.1703,2.1828,2.1832,2.1835,0,0,0,0,0,0,0,0,0,0,0,0,0,2.132,2.1323,2.1531,2.1533,2.1535,2.1659,2.1661,2.1662,2.1705,2.1704,2.1704,2.1703,2.1827,2.1831,2.1836,0,0,0,0,0,0,0,0,0,0,0,0,0,2.1426,2.1325,2.1531,2.1571,2.1576,2.1659,2.1661,2.1663,2.1705,2.1704,2.1703,2.1703,2.1825,2.1831,2.1836,2.1887,0,0,2.1854,2.1856,0,0,0,0,0,0,0,0,2.142,2.1433,2.1563,2.1568,2.1574,2.1665,2.1632,2.1738,2.1705,2.1656,2.1703,2.1702,2.1774,2.1784,2.1809,2.1893,2.1898,2.1854,2.1858,2.186,2.1862,0,0,0,0,0,0,0,2.1412,2.1428,2.1582,2.1565,2.1572,2.1581,2.1595,2.1652,2.1717,2.166,2.1663,2.1678,2.1777,2.1804,2.1812,2.19,2.1854,2.1859,2.1863,2.1865,2.2033,2.2034,0,0,0,0,0,0,2.1399,2.1422,2.1578,2.1586,2.1494,2.1585,2.1601,2.1637,2.1717,2.1729,2.1679,2.168,2.1794,2.1806,2.1817,2.1883,2.186,2.1865,2.1869,2.2032,2.2033,2.2034,0,0,0,0,0,0,2.1394,2.1412,2.1573,2.1505,2.1526,2.159,2.1629,2.164,2.1667,2.1731,2.1743,2.1695,2.1794,2.1809,2.187,2.1888,2.1868,2.1873,2.203,2.2032,2.2033,2.2015,0,0,0,0,0,0,2.1388,2.1411,2.1432,2.1505,2.1529,2.1625,2.163,2.1643,2.1677,2.168,2.1749,2.176,2.1795,2.1861,2.1876,2.1896,2.1878,2.2029,2.2031,2.2033,2.2014,2.2016,2.2017,0,0,0,0,0,2.138,2.142,2.1432,2.1451,2.1557,2.1626,2.164,2.1681,2.1678,2.17,2.1741,2.1758,2.1883,2.1867,2.1884,2.1906,2.2028,2.2031,2.2033,2.2014,2.2016,2.2017,0,0,0,0,0,0,2.1344,2.143,2.1445,2.151,2.1561,2.1633,2.1661,2.1681,2.1732,2.1732,2.1778,2.1794,2.1851,2.1884,2.1864,2.196,2.1957,2.1962,2.1936,2.1939,2.194,2.1931,2.1882,0,0,0,0,0,2.1344,2.1395,2.1466,2.1516,2.1541,2.1596,2.1628,2.1655,2.1709,2.173,2.1776,2.1826,2.1877,2.1909,2.1959,2.2019,2.2035,2.2042,2.2043,2.2044,2.2049,2.2084,2.2089,2.2042,2.2042,2.2042,0,0,2.1344,2.1397,2.1426,2.151,2.1553,2.1603,2.1614,2.1666,2.1704,2.1737,2.1799,2.1834,2.1892,2.1954,2.1983,2.1983,2.2065,2.2047,2.2047,2.2052,2.2087,2.2091,2.2095,2.2043,2.2043,2.2043,0,0,2.137,2.1415,2.1463,2.1505,2.1571,2.1608,2.1619,2.1689,2.1715,2.1777,2.1804,2.1848,2.1934,2.1976,2.2008,2.205,2.2068,2.2065,2.2072,2.2106,2.211,2.2113,2.213,2.2135,2.2069,2.2069,2.2069,0,2.1361,2.144,2.1484,2.1536,2.1572,2.1607,2.1655,2.1694,2.1771,2.1795,2.1794,2.1905,2.1946,2.2019,2.2029,2.2053,2.2068,2.2058,2.2106,2.211,2.2114,2.213,2.2136,2.2068,2.2068,2.2069,2.2069,0,2.1426,2.148,2.151,2.1587,2.1627,2.1676,2.1727,2.1761,2.1785,2.1821,2.1885,2.1936,2.1998,2.2017,2.2039,2.2092,2.2091,2.2097,2.2096,2.2117,2.2133,2.214,2.2068,2.2068,2.2068,2.2068,0,0,2.1433,2.1535,2.1546,2.1582,2.1657,2.1698,2.1749,2.1812,2.1841,2.1893,2.1937,2.2009,2.2017,2.2053,2.208,2.211,2.2142,2.2113,2.2115,2.2118,2.2205,2.2201,2.2207,2.2153,2.2155,2.2156,2.22,0,2.147,2.1565,2.1607,2.1682,2.1733,2.1767,2.1811,2.1861,2.1896,2.1943,2.1981,2.2033,2.2037,2.206,2.209,2.2132,2.216,2.2129,2.2194,2.2196,2.2181,2.2216,2.2211,2.2251,2.2207,2.2208,2.2209,0,2.1526,2.1582,2.1663,2.1733,2.1756,2.1795,2.1857,2.1902,2.1958,2.1982,2.2023,2.205,2.2103,2.2097,2.2171,2.2148,2.2177,2.2201,2.2204,2.2213,2.2205,2.2227,2.2265,2.2271,2.2219,2.2218,2.2217,0,2.1526,2.162,2.1682,2.1711,2.1794,2.1821,2.1856,2.1913,2.1948,2.2001,2.2025,2.2082,2.2114,2.2157,2.2198,2.2189,2.2268,2.2265,2.2289,2.2288,2.2306,2.2304,2.235,2.2321,2.2321,2.2321,2.2321,0,2.1564,2.1613,2.1683,2.1721,2.1776,2.1823,2.1876,2.1913,2.1963,2.2008,2.2039,2.208,2.2131,2.2177,2.2209,2.2266,2.228,2.23,2.2308,2.2298,2.2296,2.2319,2.2318,2.2323,2.2322,2.2322,2.2322,0,2.1573,2.1622,2.1692,2.1766,2.1785,2.1823,2.1885,2.1923,2.1959,2.2016,2.2032,2.2089,2.2146,2.2191,2.2264,2.2285,2.2346,2.2354,2.2328,2.2333,2.2355,2.2353,2.2419,2.2431,2.2392,2.2392,2.2392,0,2.1595,2.1634,2.1713,2.1747,2.1783,2.1836,2.1873,2.192,2.1957,2.2026,2.2055,2.2114,2.2165,2.2254,2.2301,2.2358,2.2368,2.2387,2.2377,2.2366,2.2371,2.2369,2.2373,2.2389,2.2389,2.2389,2.239,0,2.163,2.1653,2.1707,2.177,2.1814,2.1865,2.1916,2.1941,2.1997,2.2037,2.2097,2.2137,2.2213,2.2272,2.2334,2.2368,2.2388,2.2392,2.2401,2.2393,2.2377,2.2388,2.2334,2.2391,2.2391,2.2391,2.2391,2.2391,2.1648,2.1685,2.1747,2.1806,2.185,2.1898,2.1937,2.198,2.2032,2.21,2.2123,2.2185,2.2241,2.2327,2.2362,2.241,2.2411,2.2423,2.2427,2.243,2.243,2.2368,2.2421,2.2421,2.2421,2.2421,2.2421,0,2.1686,2.1728,2.1782,2.1854,2.1901,2.1917,2.1975,2.2013,2.2068,2.212,2.217,2.2239,2.2296,2.2348,2.2408,2.2437,2.2447,2.2451,2.245,2.2458,2.2425,2.2412,2.2441,2.2441,2.2441,2.2441,2.2441,2.2441,2.1711,2.1775,2.1805,2.1891,2.1932,2.1996,2.2027,2.2071,2.2113,2.219,2.2239,2.2274,2.2325,2.2389,2.2442,2.2456,2.2477,2.2479,2.2494,2.2463,2.246,2.2458,2.2446,2.2482,2.2482,2.2524,2.2525,2.2525]}]]